| time (UTC) | temp F | wind direction | speed knots | gust knots | rain 1hr in | rain 24hr in | rain mn in | humidity % | barometer mb |
| 20260506235244 | 66 | 358 | 6.1 | 8.7 | 0.00 | 0.00 | 0.00 | 75 | 1014.1 |
| 20260506234741 | 66 | 347 | 7.0 | 9.6 | 0.00 | 0.00 | 0.00 | 75 | 1014.5 |
| 20260506234238 | 66 | 349 | 2.6 | 7.8 | 0.00 | 0.00 | 0.00 | 75 | 1014.1 |
| 20260506233736 | 65 | 345 | 5.2 | 7.8 | 0.00 | 0.00 | 0.00 | 75 | 1014.1 |
| 20260506233233 | 65 | 356 | 7.0 | 9.6 | 0.00 | 0.00 | 0.00 | 75 | 1014.1 |
| 20260506232730 | 66 | 355 | 4.3 | 6.1 | 0.00 | 0.00 | 0.00 | 75 | 1014.1 |
| 20260506232230 | 66 | 342 | 4.3 | 6.1 | 0.00 | 0.00 | 0.00 | 74 | 1014.1 |
| 20260506231727 | 66 | 2 | 2.6 | 4.3 | 0.00 | 0.00 | 0.00 | 74 | 1013.8 |
| 20260506231226 | 66 | 352 | 7.0 | 10.4 | 0.00 | 0.00 | 0.00 | 73 | 1014.1 |
| 20260506230722 | 66 | 331 | 2.6 | 4.3 | 0.00 | 0.00 | 0.00 | 73 | 1014.1 |
| 20260506230219 | 67 | 323 | 1.7 | 4.3 | 0.00 | 0.00 | 0.00 | 72 | 1014.1 |
| 20260506225715 | 67 | 343 | 6.1 | 8.7 | 0.00 | 0.00 | 0.00 | 72 | 1014.1 |
| 20260506225212 | 67 | 354 | 5.2 | 7.8 | 0.00 | 0.00 | 0.00 | 72 | 1013.8 |
| 20260506224709 | 67 | 3 | 4.3 | 6.1 | 0.00 | 0.00 | 0.00 | 72 | 1013.8 |
| 20260506224206 | 68 | 0 | 5.2 | 7.8 | 0.00 | 0.00 | 0.00 | 71 | 1013.8 |
| 20260506223702 | 68 | 342 | 4.3 | 7.0 | 0.00 | 0.00 | 0.00 | 71 | 1013.8 |
| 20260506223158 | 68 | 342 | 6.1 | 9.6 | 0.00 | 0.00 | 0.00 | 71 | 1013.8 |
| 20260506222655 | 68 | 347 | 6.1 | 9.6 | 0.00 | 0.00 | 0.00 | 71 | 1013.5 |
| 20260506222150 | 68 | 349 | 7.8 | 13.0 | 0.00 | 0.00 | 0.00 | 70 | 1013.8 |
| 20260506221649 | 68 | 6 | 3.5 | 9.6 | 0.00 | 0.00 | 0.00 | 70 | 1013.8 |
| 20260506221147 | 68 | 343 | 5.2 | 9.6 | 0.00 | 0.00 | 0.00 | 69 | 1013.8 |
| 20260506220643 | 69 | 338 | 7.0 | 11.3 | 0.00 | 0.00 | 0.00 | 69 | 1013.5 |
| 20260506220138 | 70 | 352 | 5.2 | 7.8 | 0.00 | 0.00 | 0.00 | 67 | 1013.5 |
| 20260506215635 | 69 | 331 | 5.2 | 8.7 | 0.00 | 0.00 | 0.00 | 68 | 1013.5 |
| 20260506215130 | 71 | 6 | 6.1 | 11.3 | 0.00 | 0.00 | 0.00 | 66 | 1013.5 |
| 20260506214628 | 71 | 3 | 5.2 | 11.3 | 0.00 | 0.00 | 0.00 | 65 | 1013.5 |
| 20260506214125 | 70 | 352 | 6.1 | 9.6 | 0.00 | 0.00 | 0.00 | 67 | 1013.5 |
| 20260506213623 | 70 | 352 | 5.2 | 7.8 | 0.00 | 0.00 | 0.00 | 68 | 1013.5 |
| 20260506213120 | 71 | 343 | 8.7 | 14.8 | 0.00 | 0.00 | 0.00 | 66 | 1013.1 |
| 20260506212618 | 73 | 6 | 4.3 | 10.4 | 0.00 | 0.00 | 0.00 | 64 | 1013.1 |
| 20260506212112 | 73 | 351 | 7.8 | 10.4 | 0.00 | 0.00 | 0.00 | 64 | 1013.1 |
| 20260506211608 | 73 | 352 | 7.0 | 13.0 | 0.00 | 0.00 | 0.00 | 64 | 1012.8 |
| 20260506211105 | 74 | 356 | 8.7 | 12.2 | 0.00 | 0.00 | 0.00 | 63 | 1012.8 |
| 20260506210602 | 75 | 351 | 8.7 | 13.0 | 0.00 | 0.00 | 0.00 | 62 | 1013.1 |
| 20260506210058 | 75 | 358 | 5.2 | 9.6 | 0.00 | 0.00 | 0.00 | 62 | 1013.1 |
| 20260506205555 | 75 | 0 | 6.1 | 8.7 | 0.00 | 0.00 | 0.00 | 63 | 1013.1 |
| 20260506205050 | 76 | 7 | 7.8 | 10.4 | 0.00 | 0.00 | 0.00 | 63 | 1013.1 |
| 20260506204549 | 76 | 356 | 5.2 | 9.6 | 0.00 | 0.00 | 0.00 | 62 | 1013.5 |
| 20260506204045 | 75 | 347 | 5.2 | 7.0 | 0.00 | 0.00 | 0.00 | 64 | 1013.5 |
| 20260506203544 | 74 | 352 | 7.0 | 8.7 | 0.00 | 0.00 | 0.00 | 67 | 1013.5 |
| 20260506203040 | 74 | 351 | 7.0 | 11.3 | 0.00 | 0.00 | 0.00 | 67 | 1013.5 |
| 20260506202537 | 74 | 356 | 7.8 | 10.4 | 0.00 | 0.00 | 0.00 | 69 | 1013.5 |
| 20260506202033 | 74 | 358 | 3.5 | 7.0 | 0.00 | 0.00 | 0.00 | 69 | 1013.5 |
| 20260506201531 | 73 | 1 | 6.1 | 7.8 | 0.00 | 0.00 | 0.00 | 70 | 1013.5 |
| 20260506201027 | 73 | 343 | 7.0 | 11.3 | 0.00 | 0.00 | 0.00 | 70 | 1013.1 |
| 20260506200524 | 75 | 355 | 7.8 | 10.4 | 0.00 | 0.00 | 0.00 | 69 | 1013.1 |
| 20260506200021 | 77 | 333 | 8.7 | 13.9 | 0.00 | 0.00 | 0.00 | 67 | 1012.8 |
| 20260506195518 | 78 | 356 | 3.5 | 5.2 | 0.00 | 0.00 | 0.00 | 67 | 1012.5 |
| 20260506195014 | 78 | 358 | 2.6 | 6.1 | 0.00 | 0.00 | 0.00 | 67 | 1012.8 |
| 20260506194512 | 78 | 24 | 2.6 | 5.2 | 0.00 | 0.00 | 0.00 | 67 | 1012.8 |
| 20260506194008 | 78 | 2 | 3.5 | 6.1 | 0.00 | 0.00 | 0.00 | 67 | 1012.8 |
| 20260506193505 | 78 | 356 | 3.5 | 6.1 | 0.00 | 0.00 | 0.00 | 67 | 1012.5 |
| 20260506193002 | 80 | 349 | 5.2 | 11.3 | 0.00 | 0.00 | 0.00 | 65 | 1012.5 |
| 20260506192459 | 81 | 352 | 3.5 | 5.2 | 0.00 | 0.00 | 0.00 | 63 | 1012.5 |
| 20260506191955 | 81 | 2 | 3.5 | 4.3 | 0.00 | 0.00 | 0.00 | 63 | 1012.5 |
| 20260506191452 | 81 | 3 | 3.5 | 4.3 | 0.00 | 0.00 | 0.00 | 64 | 1012.8 |
| 20260506190948 | 82 | 349 | 6.1 | 8.7 | 0.00 | 0.00 | 0.00 | 61 | 1012.8 |
| 20260506190446 | 83 | 352 | 5.2 | 9.6 | 0.00 | 0.00 | 0.00 | 59 | 1012.8 |
| 20260506185942 | 85 | 334 | 3.5 | 6.1 | 0.00 | 0.00 | 0.00 | 56 | 1012.8 |
| 20260506185439 | 85 | 56 | 0.0 | 0.9 | 0.00 | 0.00 | 0.00 | 56 | 1012.8 |
| 20260506184936 | 83 | 349 | 1.7 | 3.5 | 0.00 | 0.00 | 0.00 | 59 | 1012.8 |
| 20260506184433 | 83 | 347 | 3.5 | 7.0 | 0.00 | 0.00 | 0.00 | 58 | 1012.8 |
| 20260506183930 | 82 | 76 | 0.9 | 4.3 | 0.00 | 0.00 | 0.00 | 60 | 1012.8 |
| 20260506183425 | 81 | 30 | 2.6 | 3.5 | 0.00 | 0.00 | 0.00 | 60 | 1012.8 |
| 20260506182923 | 80 | 46 | 2.6 | 3.5 | 0.00 | 0.00 | 0.00 | 62 | 1012.8 |
| 20260506182420 | 80 | 45 | 1.7 | 3.5 | 0.00 | 0.00 | 0.00 | 62 | 1013.1 |
| 20260506181917 | 80 | 17 | 1.7 | 4.3 | 0.00 | 0.00 | 0.00 | 63 | 1012.8 |
| 20260506181415 | 78 | 349 | 1.7 | 2.6 | 0.00 | 0.00 | 0.00 | 64 | 1013.1 |
| 20260506180912 | 80 | 343 | 2.6 | 5.2 | 0.00 | 0.00 | 0.00 | 62 | 1012.8 |
| 20260506180408 | 78 | 43 | 1.7 | 5.2 | 0.00 | 0.00 | 0.00 | 65 | 1012.8 |
| 20260506175905 | 77 | 0 | 0.0 | 1.7 | 0.00 | 0.00 | 0.00 | 67 | 1012.8 |
| 20260506175401 | 77 | 1 | 0.9 | 1.7 | 0.00 | 0.00 | 0.00 | 68 | 1013.1 |
| 20260506174858 | 75 | 1 | 0.9 | 3.5 | 0.00 | 0.00 | 0.00 | 71 | 1013.1 |
| 20260506174356 | 74 | 13 | 2.6 | 5.2 | 0.00 | 0.00 | 0.00 | 72 | 1013.1 |
| 20260506173853 | 74 | 355 | 2.6 | 5.2 | 0.00 | 0.00 | 0.00 | 71 | 1013.1 |
| 20260506173350 | 74 | 23 | 2.6 | 5.2 | 0.00 | 0.00 | 0.00 | 71 | 1013.1 |
| 20260506172847 | 72 | 9 | 4.3 | 6.1 | 0.00 | 0.00 | 0.00 | 74 | 1013.5 |
| 20260506172344 | 72 | 23 | 2.6 | 6.1 | 0.00 | 0.00 | 0.00 | 75 | 1013.5 |
| 20260506171841 | 71 | 356 | 4.3 | 8.7 | 0.00 | 0.00 | 0.00 | 76 | 1013.5 |
| 20260506171338 | 72 | 358 | 6.1 | 8.7 | 0.00 | 0.00 | 0.00 | 76 | 1013.5 |
| 20260506170836 | 71 | 349 | 2.6 | 4.3 | 0.00 | 0.00 | 0.00 | 78 | 1013.5 |
| 20260506170332 | 70 | 13 | 3.5 | 6.1 | 0.00 | 0.00 | 0.00 | 80 | 1013.5 |
| 20260506165831 | 69 | 30 | 3.5 | 6.1 | 0.00 | 0.00 | 0.00 | 82 | 1013.5 |
| 20260506165329 | 68 | 12 | 4.3 | 8.7 | 0.00 | 0.00 | 0.00 | 84 | 1013.8 |
| 20260506164825 | 67 | 358 | 5.2 | 7.8 | 0.00 | 0.00 | 0.00 | 86 | 1013.8 |
| 20260506164322 | 66 | 356 | 2.6 | 3.5 | 0.00 | 0.00 | 0.00 | 87 | 1014.1 |
| 20260506163819 | 66 | 349 | 3.5 | 5.2 | 0.00 | 0.00 | 0.00 | 88 | 1014.5 |
| 20260506163313 | 66 | 356 | 7.8 | 10.4 | 0.00 | 0.00 | 0.00 | 88 | 1014.9 |
| 20260506162809 | 67 | 351 | 5.2 | 8.7 | 0.00 | 0.00 | 0.00 | 88 | 1014.9 |
| 20260506162308 | 68 | 342 | 5.2 | 11.3 | 0.00 | 0.00 | 0.00 | 86 | 1014.5 |
| 20260506161804 | 78 | 349 | 3.5 | 6.1 | 0.00 | 0.00 | 0.00 | 85 | 1013.5 |
| 20260506161301 | 78 | 59 | 0.0 | 0.0 | 0.00 | 0.00 | 0.00 | 85 | 1012.8 |
| 20260506153051 | 78 | 59 | 0.0 | 0.0 | 0.00 | 0.00 | 0.00 | 85 | 1012.8 |
| 20260506152548 | 78 | 59 | 0.0 | 0.0 | 0.00 | 0.00 | 0.00 | 85 | 1012.8 |
| 20260506152046 | 78 | 59 | 0.9 | 2.6 | 0.00 | 0.00 | 0.00 | 85 | 1012.8 |
| 20260506151544 | 78 | 59 | 0.0 | 0.0 | 0.00 | 0.00 | 0.00 | 85 | 1012.8 |
| 20260506151041 | 78 | 61 | 0.0 | 0.0 | 0.00 | 0.00 | 0.00 | 86 | 1012.8 |
| 20260506150537 | 78 | 61 | 0.0 | 0.0 | 0.00 | 0.00 | 0.00 | 87 | 1012.5 |
| 20260506150034 | 77 | 112 | 1.7 | 2.6 | 0.00 | 0.00 | 0.00 | 88 | 1012.5 |
| 20260506145531 | 77 | 115 | 3.5 | 4.3 | 0.00 | 0.00 | 0.00 | 88 | 1012.5 |
| 20260506145028 | 77 | 113 | 6.1 | 7.8 | 0.00 | 0.00 | 0.00 | 88 | 1012.1 |
| 20260506144525 | 77 | 111 | 5.2 | 5.2 | 0.00 | 0.00 | 0.00 | 88 | 1011.8 |
| 20260506144022 | 77 | 114 | 4.3 | 6.1 | 0.00 | 0.00 | 0.00 | 88 | 1012.1 |
| 20260506143520 | 77 | 118 | 4.3 | 5.2 | 0.00 | 0.00 | 0.00 | 88 | 1011.8 |
| 20260506143018 | 77 | 109 | 6.1 | 7.8 | 0.00 | 0.00 | 0.00 | 89 | 1011.8 |
| 20260506142515 | 77 | 111 | 7.8 | 8.7 | 0.00 | 0.00 | 0.00 | 89 | 1011.4 |
| 20260506142014 | 77 | 111 | 5.2 | 7.0 | 0.00 | 0.00 | 0.00 | 88 | 1011.8 |
| 20260506141511 | 77 | 113 | 6.1 | 7.8 | 0.00 | 0.00 | 0.00 | 88 | 1011.8 |
| 20260506141009 | 77 | 112 | 2.6 | 3.5 | 0.00 | 0.00 | 0.00 | 88 | 1012.1 |
| 20260506140506 | 77 | 74 | 0.0 | 0.0 | 0.00 | 0.00 | 0.00 | 88 | 1012.1 |
| 20260506140004 | 77 | 74 | 0.0 | 0.0 | 0.00 | 0.00 | 0.00 | 88 | 1011.8 |
| 20260506135500 | 77 | 108 | 4.3 | 5.2 | 0.00 | 0.00 | 0.00 | 89 | 1011.8 |
| 20260506134956 | 77 | 95 | 3.5 | 6.1 | 0.00 | 0.00 | 0.00 | 89 | 1011.4 |
| 20260506134452 | 77 | 127 | 3.5 | 4.3 | 0.00 | 0.00 | 0.00 | 89 | 1011.4 |
| 20260506133949 | 77 | 111 | 3.5 | 4.3 | 0.00 | 0.00 | 0.00 | 89 | 1011.4 |
| 20260506133446 | 77 | 128 | 1.7 | 2.6 | 0.00 | 0.00 | 0.00 | 89 | 1011.4 |
| 20260506132943 | 77 | 128 | 3.5 | 4.3 | 0.00 | 0.00 | 0.00 | 89 | 1011.1 |
| 20260506132440 | 76 | 104 | 1.7 | 3.5 | 0.00 | 0.00 | 0.00 | 90 | 1011.1 |
| 20260506131937 | 76 | 63 | 0.9 | 1.7 | 0.00 | 0.00 | 0.00 | 90 | 1011.4 |
| 20260506131434 | 76 | 74 | 1.7 | 5.2 | 0.00 | 0.00 | 0.00 | 90 | 1011.1 |
| 20260506130931 | 76 | 111 | 5.2 | 7.0 | 0.00 | 0.00 | 0.00 | 90 | 1011.1 |
| 20260506130427 | 76 | 110 | 7.0 | 8.7 | 0.00 | 0.00 | 0.00 | 90 | 1011.1 |
| 20260506125925 | 76 | 102 | 5.2 | 8.7 | 0.00 | 0.00 | 0.00 | 90 | 1011.1 |
| 20260506125423 | 76 | 96 | 6.1 | 7.0 | 0.00 | 0.00 | 0.00 | 90 | 1011.1 |
| 20260506124921 | 76 | 106 | 6.1 | 7.0 | 0.00 | 0.00 | 0.00 | 90 | 1011.1 |
| 20260506124418 | 76 | 114 | 6.1 | 7.8 | 0.00 | 0.00 | 0.00 | 90 | 1011.1 |
| 20260506123916 | 76 | 106 | 6.1 | 7.8 | 0.00 | 0.00 | 0.00 | 90 | 1011.1 |
| 20260506123414 | 76 | 110 | 7.8 | 8.7 | 0.00 | 0.00 | 0.00 | 90 | 1011.1 |
| 20260506122911 | 76 | 107 | 7.0 | 9.6 | 0.00 | 0.00 | 0.00 | 90 | 1011.1 |
| 20260506122408 | 76 | 108 | 7.0 | 7.8 | 0.00 | 0.00 | 0.00 | 90 | 1011.1 |
| 20260506121907 | 76 | 96 | 5.2 | 7.8 | 0.00 | 0.00 | 0.00 | 90 | 1011.1 |
| 20260506121403 | 76 | 105 | 5.2 | 7.8 | 0.00 | 0.00 | 0.00 | 90 | 1011.1 |
| 20260506120900 | 76 | 111 | 7.0 | 7.8 | 0.00 | 0.00 | 0.00 | 90 | 1011.1 |
| 20260506120357 | 76 | 99 | 7.8 | 9.6 | 0.00 | 0.00 | 0.00 | 90 | 1010.8 |
| 20260506115855 | 76 | 111 | 5.2 | 7.0 | 0.00 | 0.00 | 0.00 | 90 | 1010.8 |
| 20260506115353 | 76 | 110 | 6.1 | 7.0 | 0.00 | 0.00 | 0.00 | 90 | 1010.8 |
| 20260506114850 | 76 | 117 | 5.2 | 6.1 | 0.00 | 0.00 | 0.00 | 90 | 1010.8 |
| 20260506114348 | 76 | 106 | 5.2 | 7.0 | 0.00 | 0.00 | 0.00 | 89 | 1011.1 |
| 20260506113847 | 76 | 117 | 5.2 | 6.1 | 0.00 | 0.00 | 0.00 | 89 | 1010.8 |
| 20260506113344 | 76 | 104 | 5.2 | 7.0 | 0.00 | 0.00 | 0.00 | 89 | 1010.8 |
| 20260506112840 | 76 | 108 | 5.2 | 7.0 | 0.00 | 0.00 | 0.00 | 89 | 1010.8 |
| 20260506112337 | 76 | 110 | 7.0 | 7.8 | 0.00 | 0.00 | 0.00 | 89 | 1010.8 |
| 20260506111835 | 76 | 109 | 7.8 | 9.6 | 0.00 | 0.00 | 0.00 | 90 | 1011.1 |
| 20260506111333 | 76 | 115 | 5.2 | 6.1 | 0.00 | 0.00 | 0.00 | 90 | 1010.8 |
| 20260506110830 | 76 | 112 | 5.2 | 7.0 | 0.00 | 0.00 | 0.00 | 90 | 1010.8 |
| 20260506110327 | 76 | 112 | 5.2 | 6.1 | 0.00 | 0.00 | 0.00 | 90 | 1010.8 |
| 20260506105824 | 76 | 101 | 4.3 | 5.2 | 0.00 | 0.00 | 0.00 | 90 | 1010.8 |
| 20260506105320 | 76 | 110 | 7.0 | 8.7 | 0.00 | 0.00 | 0.00 | 90 | 1010.8 |
| 20260506104818 | 76 | 104 | 8.7 | 10.4 | 0.00 | 0.00 | 0.00 | 90 | 1010.8 |
| 20260506104316 | 76 | 83 | 3.5 | 6.1 | 0.00 | 0.00 | 0.00 | 90 | 1010.8 |
| 20260506103813 | 76 | 117 | 5.2 | 7.0 | 0.00 | 0.00 | 0.00 | 90 | 1010.8 |
| 20260506103310 | 76 | 120 | 4.3 | 5.2 | 0.00 | 0.00 | 0.00 | 90 | 1010.8 |
| 20260506102808 | 76 | 104 | 5.2 | 7.8 | 0.00 | 0.00 | 0.00 | 90 | 1010.4 |
| 20260506102306 | 76 | 107 | 6.1 | 7.8 | 0.00 | 0.00 | 0.00 | 90 | 1010.4 |
| 20260506101803 | 76 | 111 | 5.2 | 6.1 | 0.00 | 0.00 | 0.00 | 90 | 1010.4 |
| 20260506101258 | 76 | 116 | 6.1 | 7.8 | 0.00 | 0.00 | 0.00 | 90 | 1010.4 |
| 20260506100757 | 76 | 104 | 4.3 | 6.1 | 0.00 | 0.00 | 0.00 | 90 | 1010.4 |
| 20260506100254 | 76 | 136 | 5.2 | 10.4 | 0.00 | 0.00 | 0.00 | 90 | 1010.1 |
| 20260506095753 | 76 | 114 | 7.8 | 13.0 | 0.00 | 0.00 | 0.00 | 90 | 1010.1 |
| 20260506095249 | 76 | 129 | 4.3 | 8.7 | 0.00 | 0.00 | 0.00 | 90 | 1010.1 |
| 20260506094746 | 76 | 111 | 5.2 | 8.7 | 0.00 | 0.00 | 0.00 | 90 | 1010.1 |
| 20260506094244 | 76 | 141 | 9.6 | 14.8 | 0.00 | 0.00 | 0.00 | 90 | 1010.1 |
| 20260506093743 | 76 | 127 | 7.0 | 10.4 | 0.00 | 0.00 | 0.00 | 90 | 1010.1 |
| 20260506093239 | 76 | 110 | 7.0 | 11.3 | 0.00 | 0.00 | 0.00 | 90 | 1009.7 |
| 20260506092737 | 76 | 137 | 7.0 | 9.6 | 0.00 | 0.00 | 0.00 | 90 | 1009.7 |
| 20260506092235 | 76 | 95 | 2.6 | 6.1 | 0.00 | 0.00 | 0.00 | 90 | 1009.7 |
| 20260506091732 | 76 | 144 | 7.0 | 10.4 | 0.00 | 0.00 | 0.00 | 90 | 1009.7 |
| 20260506091229 | 76 | 135 | 7.0 | 11.3 | 0.00 | 0.00 | 0.00 | 91 | 1009.7 |
| 20260506090727 | 76 | 121 | 7.0 | 10.4 | 0.00 | 0.00 | 0.00 | 91 | 1009.7 |
| 20260506090224 | 76 | 111 | 7.8 | 9.6 | 0.00 | 0.00 | 0.00 | 90 | 1009.7 |
| 20260506085721 | 76 | 105 | 7.0 | 9.6 | 0.00 | 0.00 | 0.00 | 90 | 1009.7 |
| 20260506085217 | 76 | 114 | 7.0 | 13.0 | 0.00 | 0.00 | 0.00 | 90 | 1009.7 |
| 20260506084714 | 76 | 115 | 7.8 | 9.6 | 0.00 | 0.00 | 0.00 | 90 | 1009.7 |
| 20260506084210 | 76 | 127 | 7.0 | 10.4 | 0.00 | 0.00 | 0.00 | 90 | 1009.7 |
| 20260506083707 | 76 | 135 | 6.1 | 7.8 | 0.00 | 0.00 | 0.00 | 90 | 1009.7 |
| 20260506083205 | 76 | 107 | 7.8 | 11.3 | 0.00 | 0.00 | 0.00 | 90 | 1009.7 |
| 20260506082702 | 76 | 108 | 7.8 | 9.6 | 0.00 | 0.00 | 0.00 | 90 | 1009.7 |
| 20260506082202 | 76 | 133 | 4.3 | 7.8 | 0.00 | 0.00 | 0.00 | 90 | 1009.7 |
| 20260506081700 | 76 | 113 | 7.8 | 9.6 | 0.00 | 0.00 | 0.00 | 90 | 1009.7 |
| 20260506081158 | 76 | 114 | 7.8 | 10.4 | 0.00 | 0.00 | 0.00 | 90 | 1009.7 |
| 20260506080655 | 76 | 110 | 8.7 | 11.3 | 0.00 | 0.00 | 0.00 | 90 | 1009.7 |
| 20260506080152 | 76 | 112 | 7.0 | 9.6 | 0.00 | 0.00 | 0.00 | 89 | 1009.7 |
| 20260506073136 | 76 | 128 | 6.1 | 11.3 | 0.00 | 0.00 | 0.00 | 89 | 1010.1 |
| 20260506072632 | 76 | 120 | 7.0 | 11.3 | 0.00 | 0.00 | 0.00 | 89 | 1010.1 |
| 20260506072130 | 76 | 152 | 5.2 | 9.6 | 0.00 | 0.00 | 0.00 | 89 | 1010.1 |
| 20260506071628 | 76 | 119 | 7.0 | 9.6 | 0.00 | 0.00 | 0.00 | 89 | 1010.4 |
| 20260506071125 | 76 | 128 | 7.0 | 13.0 | 0.00 | 0.00 | 0.00 | 89 | 1010.4 |
| 20260506070622 | 76 | 134 | 8.7 | 13.0 | 0.00 | 0.00 | 0.00 | 89 | 1010.1 |
| 20260506070119 | 76 | 125 | 7.8 | 13.0 | 0.00 | 0.00 | 0.00 | 88 | 1010.4 |
| 20260506062056 | 76 | 96 | 8.7 | 14.8 | 0.00 | 0.00 | 0.00 | 89 | 1010.4 |
| 20260506061552 | 76 | 111 | 7.0 | 9.6 | 0.00 | 0.00 | 0.00 | 89 | 1010.4 |
| 20260506061050 | 76 | 118 | 8.7 | 10.4 | 0.00 | 0.00 | 0.00 | 89 | 1010.1 |
| 20260506060548 | 76 | 102 | 7.8 | 8.7 | 0.00 | 0.00 | 0.00 | 89 | 1010.4 |
| 20260506051017 | 77 | 111 | 7.0 | 10.4 | 0.00 | 0.00 | 0.00 | 88 | 1010.4 |
| 20260506050515 | 77 | 108 | 7.0 | 10.4 | 0.00 | 0.00 | 0.00 | 88 | 1010.4 |
| 20260506045005 | 77 | 120 | 8.7 | 13.0 | 0.00 | 0.00 | 0.00 | 87 | 1010.1 |
| 20260506044504 | 77 | 114 | 9.6 | 14.8 | 0.00 | 0.00 | 0.00 | 87 | 1010.4 |
| 20260506044000 | 77 | 107 | 10.4 | 13.9 | 0.00 | 0.00 | 0.00 | 87 | 1010.4 |
| 20260506043457 | 77 | 107 | 9.6 | 12.2 | 0.00 | 0.00 | 0.00 | 87 | 1010.1 |
| 20260506042955 | 78 | 113 | 9.6 | 13.9 | 0.00 | 0.00 | 0.00 | 87 | 1010.1 |
| 20260506042454 | 78 | 112 | 10.4 | 12.2 | 0.00 | 0.00 | 0.00 | 87 | 1010.1 |
| 20260506041951 | 78 | 127 | 7.8 | 13.0 | 0.00 | 0.00 | 0.00 | 86 | 1010.1 |
| 20260506041450 | 78 | 112 | 9.6 | 11.3 | 0.00 | 0.00 | 0.00 | 86 | 1010.1 |
| 20260506040947 | 78 | 113 | 8.7 | 10.4 | 0.00 | 0.00 | 0.00 | 86 | 1010.1 |
| 20260506040444 | 78 | 109 | 12.2 | 13.9 | 0.00 | 0.00 | 0.00 | 86 | 1009.7 |
| 20260506035940 | 78 | 124 | 10.4 | 13.0 | 0.00 | 0.00 | 0.00 | 85 | 1009.7 |
| 20260506035437 | 78 | 106 | 11.3 | 13.9 | 0.00 | 0.00 | 0.00 | 85 | 1009.7 |
| 20260506034934 | 78 | 118 | 11.3 | 14.8 | 0.00 | 0.00 | 0.00 | 85 | 1009.7 |
| 20260506034431 | 78 | 109 | 11.3 | 13.0 | 0.00 | 0.00 | 0.00 | 85 | 1009.7 |
| 20260506033928 | 78 | 112 | 10.4 | 12.2 | 0.00 | 0.00 | 0.00 | 85 | 1009.7 |
| 20260506033426 | 78 | 104 | 12.2 | 15.6 | 0.00 | 0.00 | 0.00 | 85 | 1009.7 |
| 20260506032922 | 78 | 123 | 10.4 | 15.6 | 0.00 | 0.00 | 0.00 | 84 | 1009.7 |
| 20260506032419 | 78 | 107 | 10.4 | 12.2 | 0.00 | 0.00 | 0.00 | 84 | 1009.7 |
| 20260506031916 | 79 | 106 | 13.0 | 15.6 | 0.00 | 0.00 | 0.00 | 84 | 1009.4 |
| 20260506031413 | 79 | 108 | 11.3 | 15.6 | 0.00 | 0.00 | 0.00 | 84 | 1009.4 |
| 20260506030911 | 79 | 111 | 12.2 | 13.9 | 0.00 | 0.00 | 0.00 | 83 | 1009.4 |
| 20260506030409 | 79 | 109 | 11.3 | 14.8 | 0.00 | 0.00 | 0.00 | 83 | 1009.4 |
| 20260506025905 | 79 | 111 | 10.4 | 12.2 | 0.00 | 0.00 | 0.00 | 83 | 1009.1 |
| 20260506025402 | 79 | 112 | 11.3 | 13.0 | 0.00 | 0.00 | 0.00 | 83 | 1009.1 |
| 20260506024859 | 79 | 106 | 10.4 | 13.0 | 0.00 | 0.00 | 0.00 | 82 | 1009.1 |
| 20260506024356 | 80 | 113 | 13.0 | 14.8 | 0.00 | 0.00 | 0.00 | 82 | 1008.7 |
| 20260506023852 | 80 | 110 | 11.3 | 15.6 | 0.00 | 0.00 | 0.00 | 81 | 1008.7 |
| 20260506023349 | 80 | 112 | 10.4 | 14.8 | 0.00 | 0.00 | 0.00 | 81 | 1008.7 |
| 20260506022845 | 80 | 107 | 10.4 | 14.8 | 0.00 | 0.00 | 0.00 | 80 | 1008.3 |
| 20260506022343 | 80 | 108 | 11.3 | 13.0 | 0.00 | 0.00 | 0.00 | 79 | 1008.3 |
| 20260506021841 | 81 | 108 | 15.6 | 18.2 | 0.00 | 0.00 | 0.00 | 78 | 1008.0 |
| 20260506021338 | 81 | 108 | 14.8 | 18.2 | 0.00 | 0.00 | 0.00 | 77 | 1008.0 |
| 20260506020834 | 81 | 106 | 8.7 | 12.2 | 0.00 | 0.00 | 0.00 | 76 | 1008.0 |
| 20260506020332 | 82 | 108 | 9.6 | 12.2 | 0.00 | 0.00 | 0.00 | 76 | 1008.0 |
| 20260506015830 | 82 | 103 | 11.3 | 13.0 | 0.00 | 0.00 | 0.00 | 75 | 1008.0 |
| 20260506015327 | 82 | 106 | 11.3 | 13.0 | 0.00 | 0.00 | 0.00 | 75 | 1008.0 |
| 20260506014824 | 82 | 116 | 10.4 | 11.3 | 0.00 | 0.00 | 0.00 | 75 | 1007.6 |
| 20260506014320 | 82 | 108 | 11.3 | 14.8 | 0.00 | 0.00 | 0.00 | 75 | 1008.0 |
| 20260506013817 | 82 | 102 | 9.6 | 11.3 | 0.00 | 0.00 | 0.00 | 75 | 1008.0 |
| 20260506013314 | 82 | 107 | 9.6 | 12.2 | 0.00 | 0.00 | 0.00 | 74 | 1008.0 |
| 20260506012811 | 82 | 109 | 11.3 | 13.9 | 0.00 | 0.00 | 0.00 | 74 | 1008.0 |
| 20260506012308 | 82 | 111 | 12.2 | 13.9 | 0.00 | 0.00 | 0.00 | 74 | 1007.6 |
| 20260506011805 | 83 | 104 | 11.3 | 13.9 | 0.00 | 0.00 | 0.00 | 73 | 1008.0 |
| 20260506011301 | 83 | 106 | 8.7 | 10.4 | 0.00 | 0.00 | 0.00 | 73 | 1008.0 |
| 20260506010800 | 83 | 107 | 7.8 | 9.6 | 0.00 | 0.00 | 0.00 | 73 | 1008.0 |
| 20260506010257 | 83 | 108 | 8.7 | 11.3 | 0.00 | 0.00 | 0.00 | 72 | 1008.0 |
| 20260506005754 | 83 | 113 | 7.0 | 8.7 | 0.00 | 0.00 | 0.00 | 72 | 1008.0 |
| 20260506005251 | 83 | 108 | 7.8 | 9.6 | 0.00 | 0.00 | 0.00 | 72 | 1008.0 |
| 20260506004746 | 83 | 104 | 6.1 | 8.7 | 0.00 | 0.00 | 0.00 | 72 | 1008.0 |
| 20260506004245 | 83 | 114 | 5.2 | 7.8 | 0.00 | 0.00 | 0.00 | 72 | 1007.6 |
| 20260506003740 | 83 | 112 | 5.2 | 7.0 | 0.00 | 0.00 | 0.00 | 72 | 1007.6 |
| 20260506003237 | 83 | 120 | 6.1 | 8.7 | 0.00 | 0.00 | 0.00 | 72 | 1007.6 |
| 20260506002733 | 84 | 108 | 7.8 | 9.6 | 0.00 | 0.00 | 0.00 | 72 | 1007.6 |
| 20260506002229 | 84 | 115 | 7.0 | 7.8 | 0.00 | 0.00 | 0.00 | 72 | 1007.6 |
| 20260506001725 | 84 | 102 | 7.8 | 9.6 | 0.00 | 0.00 | 0.00 | 71 | 1007.6 |
| 20260506001223 | 84 | 126 | 6.1 | 8.7 | 0.00 | 0.00 | 0.00 | 71 | 1007.3 |
| 20260506000719 | 84 | 102 | 8.7 | 10.4 | 0.00 | 0.00 | 0.00 | 71 | 1007.6 |
| 20260506000219 | 84 | 119 | 6.1 | 7.8 | 0.00 | 0.00 | 0.00 | 71 | 1007.3 |
| 20260505235714 | 84 | 152 | 6.1 | 10.4 | 0.00 | 0.00 | 0.00 | 71 | 1007.3 |